Location: Boiro
(42.6475°N, 8.8834°W)
Time: 02:38:01
(UTC+02:00)

UKube-1 - Pass Details

Date: 01 May 2024
Orbit: 583 x 591 km, 98.3° (Epoch: 23 May)

Event Time Altitude Azimuth Distance (km) Brightness Sun altitude
Rises 04:56:34 0° 354° (N) 2,831 ? -23.4°
Reaches altitude 10° 04:59:38 10° 329° (NNW) 1,922 ? -23.0°
Enters shadow 05:01:26 14° 304° (WNW) 1,677 ? -22.8°
